When you browse on this site, cookies collect data to enhance your experience and personalize the content and advertising you see.
Visit our Privacy Policy to learn more. By continuing to use the site, you agree to this use of cookies and data.
  • In Hungary
  • List of Countries
  • For 7 days
  • Water Temperature
  • Weather Map
  • News
  • Weather Widgets
  • user-avatar
    Login

    Hourly Weather Oktyabrskoe

    Today, 27 January, Monday

    Time Temperature Precipitation Wind Pressure Humidity
    00:00 0°C° 0 mm 4 mps 735 mmHg 91%
    01:00 0°C° 0 mm 4 mps 735 mmHg 93%
    02:00 0°C° 0 mm 4 mps 735 mmHg 93%
    03:00 0°C° 0.1 mm 3 mps 736 mmHg 95%
    04:00 0°C° 0.1 mm 3 mps 736 mmHg 96%
    05:00 +1°C° 0.1 mm 2 mps 736 mmHg 97%
    06:00 +1°C° 0.1 mm 2 mps 736 mmHg 97%
    07:00 +1°C° 0.1 mm 2 mps 737 mmHg 98%
    08:00 +1°C° 0.1 mm 1 mps 737 mmHg 98%
    09:00 +1°C° 0.2 mm 1 mps 737 mmHg 97%
    10:00 +1°C° 0.2 mm 1 mps 737 mmHg 97%
    11:00 +1°C° 0.2 mm 1 mps 738 mmHg 97%
    12:00 +1°C° 0.5 mm 1 mps 737 mmHg 97%
    13:00 -1°C° 0.5 mm 2 mps 737 mmHg 97%
    14:00 -1°C° 0.5 mm 2 mps 737 mmHg 97%
    15:00 -1°C° 0.7 mm 2 mps 737 mmHg 97%
    16:00 -1°C° 0.7 mm 2 mps 737 mmHg 98%
    17:00 -1°C° 0.7 mm 2 mps 737 mmHg 98%
    18:00 -1°C° 0.6 mm 2 mps 737 mmHg 98%
    19:00 -1°C° 0.6 mm 2 mps 736 mmHg 98%
    20:00 -1°C° 0.6 mm 2 mps 736 mmHg 97%
    21:00 -1°C° 0.6 mm 2 mps 736 mmHg 97%
    22:00 -2°C° 0.6 mm 2 mps 736 mmHg 97%
    23:00 -2°C° 0.6 mm 2 mps 736 mmHg 97%

    Tomorrow, 28 January, Tuesday

    Time Temperature Precipitation Wind Pressure Humidity
    00:00 -2°C° 0.3 mm 2 mps 735 mmHg 97%
    01:00 -2°C° 0.3 mm 2 mps 735 mmHg 97%
    02:00 -2°C° 0.3 mm 2 mps 735 mmHg 97%
    03:00 -2°C° 0.2 mm 2 mps 735 mmHg 97%
    04:00 +1°C° 0.2 mm 1 mps 734 mmHg 97%
    05:00 +1°C° 0.2 mm 1 mps 734 mmHg 98%
    06:00 +1°C° 0.2 mm 1 mps 734 mmHg 98%
    07:00 +1°C° 0.2 mm 1 mps 734 mmHg 98%
    08:00 +1°C° 0.2 mm 1 mps 734 mmHg 98%
    09:00 -1°C° 0.1 mm 2 mps 734 mmHg 97%
    10:00 -1°C° 0.1 mm 2 mps 734 mmHg 97%
    11:00 -1°C° 0.1 mm 2 mps 734 mmHg 97%
    12:00 +1°C° 0 mm 2 mps 734 mmHg 96%
    13:00 +1°C° 0 mm 2 mps 734 mmHg 96%
    14:00 +1°C° 0 mm 2 mps 734 mmHg 95%
    15:00 -1°C° 0 mm 2 mps 734 mmHg 96%
    16:00 -1°C° 0 mm 2 mps 734 mmHg 96%
    17:00 -1°C° 0 mm 2 mps 734 mmHg 96%
    18:00 -1°C° 0 mm 2 mps 734 mmHg 95%
    19:00 -1°C° 0 mm 2 mps 734 mmHg 94%
    20:00 -1°C° 0 mm 2 mps 734 mmHg 93%
    21:00 -1°C° 0 mm 2 mps 734 mmHg 93%
    22:00 -2°C° 0 mm 2 mps 733 mmHg 93%
    23:00 -2°C° 0 mm 3 mps 733 mmHg 93%

    Day after tomorrow, 29 January, Wednesday

    Time Temperature Precipitation Wind Pressure Humidity
    00:00 -2°C° 0 mm 3 mps 733 mmHg 94%
    01:00 -2°C° 0 mm 3 mps 733 mmHg 94%
    02:00 -2°C° 0 mm 3 mps 733 mmHg 94%
    03:00 -1°C° 0 mm 3 mps 732 mmHg 94%
    04:00 -1°C° 0 mm 3 mps 732 mmHg 94%
    05:00 -1°C° 0 mm 3 mps 732 mmHg 94%
    06:00 -1°C° 0 mm 3 mps 732 mmHg 94%
    07:00 -1°C° 0 mm 3 mps 732 mmHg 93%
    08:00 -2°C° 0 mm 4 mps 732 mmHg 93%
    09:00 -2°C° 0 mm 4 mps 732 mmHg 91%
    10:00 -1°C° 0 mm 4 mps 731 mmHg 89%
    11:00 -1°C° 0 mm 4 mps 731 mmHg 87%
    12:00 -1°C° 0 mm 4 mps 731 mmHg 89%
    13:00 -1°C° 0 mm 4 mps 731 mmHg 90%
    14:00 -2°C° 0 mm 4 mps 731 mmHg 92%
    15:00 -2°C° 0 mm 4 mps 731 mmHg 92%
    16:00 -2°C° 0 mm 4 mps 731 mmHg 93%
    17:00 -2°C° 0 mm 4 mps 730 mmHg 93%
    18:00 -1°C° 0 mm 4 mps 730 mmHg 93%
    19:00 -1°C° 0 mm 4 mps 730 mmHg 92%
    20:00 -1°C° 0 mm 4 mps 730 mmHg 92%
    21:00 -1°C° 0 mm 4 mps 730 mmHg 93%
    22:00 -1°C° 0 mm 4 mps 730 mmHg 94%
    23:00 -2°C° 0 mm 4 mps 729 mmHg 96%

    30 January, Thursday

    Time Temperature Precipitation Wind Pressure Humidity
    00:00 -2°C° 0.2 mm 4 mps 729 mmHg 96%
    01:00 -2°C° 0.2 mm 4 mps 729 mmHg 96%
    02:00 -2°C° 0.2 mm 4 mps 729 mmHg 97%
    03:00 -1°C° 0.1 mm 4 mps 729 mmHg 97%
    04:00 0°C° 0.1 mm 3 mps 728 mmHg 97%
    05:00 0°C° 0.1 mm 3 mps 728 mmHg 97%
    06:00 0°C° 0 mm 3 mps 728 mmHg 97%
    07:00 0°C° 0 mm 3 mps 728 mmHg 97%
    08:00 0°C° 0 mm 3 mps 728 mmHg 97%
    09:00 0°C° 0.1 mm 3 mps 728 mmHg 97%
    10:00 0°C° 0.1 mm 3 mps 728 mmHg 97%
    11:00 0°C° 0.1 mm 3 mps 728 mmHg 97%
    12:00 +1°C° 0.1 mm 2 mps 728 mmHg 97%
    13:00 +1°C° 0.1 mm 2 mps 728 mmHg 97%
    14:00 -1°C° 0.1 mm 2 mps 728 mmHg 97%
    15:00 -1°C° 0.2 mm 2 mps 728 mmHg 97%
    16:00 -1°C° 0.2 mm 2 mps 728 mmHg 97%
    17:00 -1°C° 0.2 mm 2 mps 728 mmHg 97%
    18:00 -1°C° 0.2 mm 2 mps 728 mmHg 98%
    19:00 +1°C° 0.2 mm 1 mps 728 mmHg 98%
    20:00 +1°C° 0.2 mm 1 mps 728 mmHg 98%
    21:00 0°C° 0.1 mm 1 mps 728 mmHg 98%
    22:00 0°C° 0.1 mm 1 mps 728 mmHg 98%
    23:00 0°C° 0.1 mm 1 mps 728 mmHg 98%

    31 January, Friday

    Time Temperature Precipitation Wind Pressure Humidity
    00:00 0°C° 0.1 mm 1 mps 728 mmHg 98%
    01:00 -1°C° 0.1 mm 1 mps 728 mmHg 98%
    02:00 -2°C° 0.1 mm 0 mps 728 mmHg 98%
    03:00 -2°C° 0.1 mm 0 mps 728 mmHg 97%
    04:00 -2°C° 0.1 mm 0 mps 728 mmHg 97%
    05:00 -2°C° 0.1 mm 0 mps 728 mmHg 97%
    06:00 -2°C° 0.1 mm 0 mps 728 mmHg 97%
    07:00 -2°C° 0.1 mm 0 mps 728 mmHg 97%
    08:00 -2°C° 0.1 mm 0 mps 728 mmHg 97%
    09:00 -2°C° 0.1 mm 0 mps 728 mmHg 96%
    10:00 -1°C° 0.1 mm 0 mps 728 mmHg 95%
    11:00 -1°C° 0.1 mm 0 mps 728 mmHg 93%
    12:00 0°C° 0.1 mm 0 mps 728 mmHg 94%
    13:00 0°C° 0.1 mm 0 mps 728 mmHg 94%
    14:00 0°C° 0.1 mm 0 mps 728 mmHg 95%
    15:00 +1°C° 0.1 mm 1 mps 729 mmHg 96%
    16:00 0°C° 0.1 mm 1 mps 729 mmHg 97%
    17:00 0°C° 0.1 mm 1 mps 729 mmHg 98%
    18:00 0°C° 0.1 mm 1 mps 729 mmHg 97%
    19:00 0°C° 0.1 mm 1 mps 730 mmHg 97%
    20:00 0°C° 0.1 mm 1 mps 730 mmHg 97%
    21:00 0°C° 0.1 mm 1 mps 730 mmHg 96%
    22:00 0°C° 0.1 mm 1 mps 731 mmHg 96%
    23:00 0°C° 0.1 mm 1 mps 731 mmHg 96%

    1 February, Saturday

    Time Temperature Precipitation Wind Pressure Humidity
    00:00 0°C° 0 mm 1 mps 731 mmHg 95%
    01:00 0°C° 0 mm 1 mps 732 mmHg 95%
    02:00 -1°C° 0 mm 1 mps 732 mmHg 94%
    03:00 -1°C° 0 mm 1 mps 732 mmHg 94%
    04:00 -1°C° 0 mm 1 mps 732 mmHg 93%
    05:00 -3°C° 0 mm 2 mps 731 mmHg 93%
    06:00 -3°C° 0 mm 2 mps 731 mmHg 92%
    07:00 -3°C° 0 mm 2 mps 731 mmHg 92%
    08:00 -3°C° 0 mm 2 mps 731 mmHg 91%
    09:00 -4°C° 0 mm 3 mps 731 mmHg 89%
    10:00 -2°C° 0 mm 3 mps 730 mmHg 86%
    11:00 -3°C° 0 mm 4 mps 730 mmHg 84%
    12:00 -3°C° 0.2 mm 4 mps 729 mmHg 88%
    13:00 -3°C° 0.2 mm 4 mps 729 mmHg 91%
    14:00 -2°C° 0.2 mm 4 mps 728 mmHg 95%
    15:00 -2°C° 0.4 mm 4 mps 728 mmHg 95%
    16:00 -2°C° 0.4 mm 4 mps 727 mmHg 96%
    17:00 -2°C° 0.4 mm 4 mps 727 mmHg 97%
    18:00 -1°C° 0.3 mm 4 mps 727 mmHg 97%
    19:00 0°C° 0.3 mm 3 mps 726 mmHg 97%
    20:00 0°C° 0.3 mm 3 mps 726 mmHg 97%
    21:00 0°C° 0.4 mm 3 mps 726 mmHg 97%
    22:00 0°C° 0.4 mm 4 mps 726 mmHg 97%
    23:00 0°C° 0.4 mm 4 mps 726 mmHg 96%
    Show more